Date String (YYYY-MM-DD hh:mm:ss) UTC,Instrument flags,absolute air pressure of the measurement (hPa),sample flow rate (lpm),inlet stack bypass flow (lpm),air temperature of the measurement (°C),ambient temperature measured by the external sensor (°C),aerosol sample conditioner tube jacket temperature (°C),OPC LED temperature (°C),internal box temperature (°C),relative humidity of the measurement (%),span deviation,mass concentration of particles derived from Lorenz-Mie calculation of OPC scattering (μg/m³),mass concentration of particles derived from Lorenz-Mie calculation of OPC scattering (μg/m³),mass concentration of particles derived from Lorenz-Mie calculation of OPC scattering (μg/m³)
DateTimeUTC,F1_M11,P_M11,Q1_M11,Q2_M11,T1_M11,T2_M11,T3_M11,T4_M11,T5_M11,U1_M11,ZSPAN_M11,X0_M11,X2_M11,X1_M11
2023-12-19 10:00:00,SystemResetWarning,0824.5,4.99,000.00,022.4,021.4,000.0,030.7,023.7,5.7,0000.0,0001.67,0000.70,0000.52
2023-12-19 10:01:00,SystemResetWarning,0824.5,5.00,000.00,022.4,021.4,000.0,030.7,023.7,5.8,0000.0,0001.39,0000.69,0000.52
2023-12-19 10:02:00,SystemResetWarning,0824.4,5.00,000.00,022.4,021.4,000.0,030.7,023.7,5.8,0000.0,0001.27,0000.67,0000.52
2023-12-19 10:03:00,SystemResetWarning,0824.4,5.00,000.00,022.4,021.4,000.0,030.7,023.7,5.7,0000.0,0001.03,0000.63,0000.51
2023-12-19 10:04:00,SystemResetWarning,0824.2,5.00,000.00,022.4,021.4,000.0,030.7,023.7,5.8,0000.0,0001.01,0000.62,0000.51
2023-12-19 10:05:00,SystemResetWarning,0824.2,5.00,000.00,022.4,021.4,000.0,030.7,023.7,5.7,0000.0,0000.91,0000.60,0000.51
2023-12-19 10:06:00,SystemResetWarning,0824.3,5.00,000.00,022.4,021.4,000.0,030.7,023.7,5.6,0000.0,0000.88,0000.60,0000.51
2023-12-19 10:07:00,SystemResetWarning,0824.3,5.00,000.00,022.4,021.4,000.0,030.7,023.7,5.7,0000.0,0001.12,0000.62,0000.52
2023-12-19 10:08:00,SystemResetWarning,0824.4,5.01,000.00,022.4,021.4,000.0,030.7,023.7,5.6,0000.0,0001.19,0000.62,0000.53
2023-12-19 10:09:00,SystemResetWarning,0824.5,5.01,000.00,022.4,021.4,000.0,030.7,023.7,5.5,0000.0,0001.32,0000.65,0000.54
2023-12-19 10:10:00,SystemResetWarning,0824.6,5.01,000.00,022.4,021.4,000.0,030.7,023.7,5.6,0000.0,0001.39,0000.69,0000.55
2023-12-19 10:11:00,SystemResetWarning,0824.5,5.00,000.00,022.4,021.4,000.0,030.7,023.7,5.6,0000.0,0001.41,0000.71,0000.56
2023-12-19 10:12:00,SystemResetWarning,0824.5,4.99,000.00,022.4,021.4,000.0,030.7,023.7,5.4,0000.0,0001.51,0000.73,0000.57
2023-12-19 10:13:00,SystemResetWarning,0824.4,5.00,000.00,022.4,021.4,000.0,030.7,023.7,5.4,0000.0,0001.55,0000.75,0000.58
2023-12-19 10:14:00,SystemResetWarning,0824.4,5.01,000.00,022.4,021.4,000.0,030.7,023.6,5.6,0000.0,0001.64,0000.80,0000.59
2023-12-19 10:15:00,SystemResetWarning,0824.5,5.01,000.00,022.4,021.4,000.0,030.7,023.6,5.8,0000.0,0001.68,0000.82,0000.61
2023-12-19 10:16:00,SystemResetWarning,0824.4,5.00,000.00,022.4,021.4,000.0,030.7,023.6,5.7,0000.0,0001.83,0000.87,0000.62
2023-12-19 10:17:00,SystemResetWarning,0824.4,4.99,000.00,022.4,021.4,000.0,030.7,023.6,5.6,0000.0,0002.20,0000.90,0000.63
2023-12-19 10:18:00,SystemResetWarning,0824.4,5.01,000.00,022.4,021.4,000.0,030.7,023.7,5.6,0000.0,0001.96,0000.91,0000.66
2023-12-19 10:19:00,SystemResetWarning,0824.5,5.01,000.00,022.4,021.4,000.0,030.7,023.7,5.4,0000.0,0001.92,0000.93,0000.67
2023-12-19 10:20:00,SystemResetWarning,0824.4,4.99,000.00,022.4,021.4,000.0,030.7,023.7,5.5,0000.0,0001.82,0000.92,0000.69
2023-12-19 10:21:00,SystemResetWarning,0824.5,5.00,000.00,022.4,021.4,000.0,030.7,023.7,5.7,0000.0,0001.78,0000.91,0000.70
2023-12-19 10:22:00,SystemResetWarning,0824.5,5.00,000.00,022.4,021.4,000.0,030.7,023.7,5.7,0000.0,0002.07,0000.90,0000.70
2023-12-19 10:23:00,SystemResetWarning,0824.5,4.99,000.00,022.4,021.4,000.0,030.7,023.7,5.6,0000.0,0003.55,0000.91,0000.71
2023-12-19 10:24:00,SystemResetWarning,0824.5,5.00,000.00,022.4,021.4,000.0,030.7,023.7,5.6,0000.0,0003.83,0000.94,0000.72
2023-12-19 10:25:00,SystemResetWarning,0824.6,5.00,000.00,022.4,021.5,000.0,030.7,023.7,5.7,0000.0,0003.79,0000.92,0000.73
2023-12-19 10:26:00,SystemResetWarning,0824.6,5.00,000.00,022.4,021.5,000.0,030.7,023.7,5.7,0000.0,0003.77,0000.90,0000.72
2023-12-19 10:27:00,SystemResetWarning,0824.7,5.00,000.00,022.4,021.5,000.0,030.7,023.7,5.6,0000.0,0003.83,0000.91,0000.73
2023-12-19 10:28:00,SystemResetWarning,0824.8,4.99,000.00,022.4,021.5,000.0,030.7,023.7,5.6,0000.0,0003.57,0000.94,0000.73
2023-12-19 10:29:00,SystemResetWarning,0824.8,5.00,000.00,022.4,021.5,000.0,030.7,023.8,5.6,0000.0,0003.59,0000.95,0000.73
2023-12-19 10:30:00,SystemResetWarning,0824.7,5.00,000.00,022.4,021.5,000.0,030.7,023.8,5.5,0000.0,0003.62,0000.98,0000.73
2023-12-19 10:31:00,SystemResetWarning,0824.7,5.01,000.00,022.4,021.5,000.0,030.7,023.8,5.6,0000.0,0003.58,0000.97,0000.73
2023-12-19 10:32:00,SystemResetWarning,0824.8,5.00,000.00,022.4,021.5,000.0,030.7,023.8,5.6,0000.0,0003.62,0000.99,0000.74
2023-12-19 10:33:00,SystemResetWarning,0824.8,5.00,000.00,022.4,021.5,000.0,030.7,023.8,5.7,0000.0,0003.38,0001.01,0000.74
2023-12-19 10:34:00,SystemResetWarning,0824.8,5.00,000.00,022.4,021.5,000.0,030.7,023.8,5.6,0000.0,0002.38,0001.01,0000.73
2023-12-19 10:35:00,SystemResetWarning,0824.9,5.00,000.00,022.4,021.6,000.0,030.7,023.8,5.5,0000.0,0001.59,0001.00,0000.74
2023-12-19 10:36:00,SystemResetWarning,0824.8,5.00,000.00,022.4,021.6,000.0,030.7,023.9,5.7,0000.0,0001.56,0001.00,0000.74
2023-12-19 10:37:00,SystemResetWarning,0824.8,5.01,000.00,022.4,021.6,000.0,030.7,023.8,5.7,0000.0,0001.54,0001.01,0000.74
2023-12-19 10:38:00,SystemResetWarning,0824.8,5.00,000.00,022.4,021.6,000.0,030.7,023.8,5.7,0000.0,0001.36,0001.00,0000.74
2023-12-19 10:39:00,SystemResetWarning,0824.9,5.00,000.00,022.4,021.6,000.0,030.7,023.9,5.9,0000.0,0001.30,0000.98,0000.74
2023-12-19 10:40:00,SystemResetWarning,0824.8,5.00,000.00,022.4,021.6,000.0,030.7,023.8,5.9,0000.0,0001.42,0000.96,0000.73
2023-12-19 10:41:00,SystemResetWarning,0824.9,5.00,000.00,022.4,021.6,000.0,030.7,023.8,5.8,0000.0,0001.70,0000.95,0000.72
2023-12-19 10:42:00,SystemResetWarning,0824.9,5.01,000.00,022.5,021.6,000.0,030.7,023.8,5.8,0000.0,0001.77,0000.98,0000.71
2023-12-19 10:43:00,SystemResetWarning,0824.9,4.99,000.00,022.5,021.6,000.0,030.7,023.9,5.9,0000.0,0001.74,0000.96,0000.71
2023-12-19 10:44:00,SystemResetWarning,0824.8,4.99,000.00,022.5,021.6,000.0,030.7,023.9,5.9,0000.0,0002.01,0000.93,0000.70
2023-12-19 10:45:00,SystemResetWarning,0824.8,4.99,000.00,022.5,021.6,000.0,030.7,023.9,5.7,0000.0,0002.71,0000.94,0000.70
2023-12-19 10:46:00,SystemResetWarning,0824.9,5.00,000.00,022.5,021.7,000.0,030.7,023.9,5.6,0000.0,0002.68,0000.92,0000.69
2023-12-19 10:47:00,SystemResetWarning,0824.9,5.00,000.00,022.5,021.7,000.0,030.7,023.9,5.6,0000.0,0002.72,0000.93,0000.69
2023-12-19 10:48:00,SystemResetWarning,0824.9,5.00,000.00,022.5,021.7,000.0,030.7,023.9,5.7,0000.0,0002.73,0000.94,0000.69
2023-12-19 10:49:00,SystemResetWarning,0824.9,5.00,000.00,022.5,021.7,000.0,030.8,023.9,5.7,0000.0,0002.80,0000.97,0000.70
2023-12-19 10:50:00,SystemResetWarning,0824.9,5.00,000.00,022.5,021.7,000.0,030.8,023.9,5.7,0000.0,0002.89,0000.97,0000.70
2023-12-19 10:51:00,SystemResetWarning,0824.9,5.00,000.00,022.5,021.7,000.0,030.8,023.9,5.7,0000.0,0002.83,0000.96,0000.70
2023-12-19 10:52:00,SystemResetWarning,0824.9,5.00,000.00,022.5,021.7,000.0,030.8,023.9,5.7,0000.0,0002.44,0000.95,0000.71
2023-12-19 10:53:00,SystemResetWarning,0824.9,5.00,000.00,022.5,021.7,000.0,030.8,023.9,5.6,0000.0,0002.35,0000.91,0000.71
2023-12-19 10:54:00,SystemResetWarning,0824.9,5.00,000.00,022.5,021.7,000.0,030.8,023.9,5.7,0000.0,0002.47,0000.92,0000.72
2023-12-19 10:55:00,SystemResetWarning,0825.0,4.99,000.00,022.5,021.7,000.0,030.8,023.9,5.8,0000.0,0002.41,0000.93,0000.73
2023-12-19 10:56:00,SystemResetWarning,0824.9,4.99,000.00,022.5,021.7,000.0,030.8,023.9,5.7,0000.0,0001.66,0000.93,0000.74
2023-12-19 10:57:00,SystemResetWarning,0824.8,5.00,000.00,022.5,021.7,000.0,030.8,023.9,5.6,0000.0,0001.81,0000.93,0000.74
2023-12-19 10:58:00,SystemResetWarning,0824.8,5.00,000.00,022.6,021.7,000.0,030.8,023.9,5.7,0000.0,0001.89,0000.93,0000.74
2023-12-19 10:59:00,SystemResetWarning,0824.9,5.00,000.00,022.6,021.7,000.0,030.8,023.9,5.7,0000.0,0001.91,0000.93,0000.75
